QPF
0.00 0.00 0.00 0.00 0.01 0.01 0.01 0.01 0.02 0.02 0.02 0.03 0.03 0.03 0.03 0.02 0.03 0.03 0.03 0.03 0.03 0.03 0.02 0.02 0.02 0.03 0.03 0.03 0.03 0.04 0.05 0.08 0.09 0.05 0.04 0.05 0.07 0.10 0.13 0.14 0.13 0.13 0.11
0.00 0.00 0.00 0.01 0.01 0.01 0.02 0.02 0.02 0.03 0.03 0.04 0.03 0.03 0.02 0.02 0.03 0.03 0.03 0.02 0.03 0.02 0.02 0.03 0.03 0.04 0.04 0.04 0.05 0.05 0.06 0.07 0.09 0.07 0.04 0.04 0.06 0.10 0.14 0.17 0.20 0.18 0.14
0.00 0.00 0.00 0.01 0.01 0.02 0.02 0.03 0.03 0.03 0.03 0.03 0.03 0.03 0.02 0.03 0.03 0.02 0.02 0.02 0.02 0.02 0.03 0.04 0.04 0.05 0.04 0.05 0.06 0.07 0.07 0.08 0.09 0.08 0.05 0.05 0.08 0.12 0.15 0.20 0.21 0.19 0.13
0.00 0.00 0.00 0.01 0.01 0.02 0.03 0.03 0.03 0.03 0.03 0.02 0.02 0.02 0.02 0.03 0.01 0.01 0.01 0.01 0.02 0.02 0.04 0.05 0.05 0.05 0.06 0.05 0.05 0.06 0.08 0.10 0.09 0.08 0.06 0.07 0.09 0.12 0.12 0.16 0.18 0.16 0.13
0.00 0.00 0.01 0.01 0.02 0.03 0.03 0.04 0.03 0.03 0.02 0.01 0.01 0.01 0.02 0.01 0.00 0.00 0.00 0.00 0.01 0.02 0.03 0.05 0.05 0.04 0.04 0.04 0.03 0.05 0.09 0.11 0.10 0.09 0.07 0.07 0.09 0.11 0.10 0.11 0.14 0.13 0.09
0.00 0.01 0.01 0.01 0.02 0.03 0.03 0.03 0.02 0.01 0.01 0.01 0.01 0.01 0.01 0.01 0.00 0.00 0.00 0.00 0.01 0.03 0.05 0.04 0.02 0.01 0.01 0.02 0.03 0.06 0.09 0.09 0.09 0.08 0.06 0.06 0.07 0.08 0.08 0.10 0.11 0.10 0.07
0.01 0.00 0.01 0.01 0.01 0.02 0.01 0.01 0.01 0.01 0.01 0.01 0.01 0.01 0.01 0.01 0.00 0.00 0.00 0.00 0.02 0.05 0.05 0.03 0.01 0.01 0.01 0.02 0.03 0.06 0.09 0.10 0.08 0.05 0.04 0.04 0.06 0.07 0.08 0.11 0.10 0.08 0.07
0.00 0.00 0.00 0.01 0.01 0.00 0.00 0.01 0.01 0.01 0.02 0.02 0.01 0.01 0.01 0.01 0.00 0.00 0.00 0.01 0.02 0.03 0.02 0.02 0.02 0.01 0.02 0.03 0.04 0.07 0.10 0.09 0.06 0.04 0.04 0.05 0.07 0.07 0.06 0.06 0.06 0.07 0.05
0.00 0.00 0.00 0.00 0.00 0.00 0.01 0.01 0.02 0.02 0.02 0.01 0.01 0.01 0.01 0.01 0.00 0.00 0.00 0.00 0.01 0.00 0.01 0.01 0.01 0.01 0.02 0.04 0.06 0.09 0.12 0.12 0.08 0.06 0.08 0.12 0.13 0.10 0.07 0.06 0.06 0.05 0.03
0.00 0.00 0.00 0.00 0.00 0.01 0.01 0.02 0.02 0.02 0.01 0.01 0.01 0.01 0.01 0.01 0.00 0.00 0.00 0.00 0.00 0.00 0.00 0.01 0.01 0.02 0.02 0.04 0.08 0.11 0.16 0.17 0.11 0.07 0.09 0.14 0.14 0.13 0.13 0.10 0.07 0.05 0.02
0.00 0.00 0.00 0.00 0.00 0.00 0.01 0.01 0.01 0.01 0.01 0.01 0.01 0.01 0.00 0.00 0.00 0.00 0.00 0.00 0.00 0.00 0.00 0.01 0.02 0.03 0.03 0.06 0.11 0.14 0.20 0.19 0.13 0.09 0.10 0.13 0.15 0.15 0.13 0.13 0.09 0.05 0.02
0.00 0.00 0.01 0.00 0.00 0.00 0.00 0.01 0.01 0.01 0.00 0.00 0.00 0.00 0.00 0.00 0.00 0.00 0.00 0.00 0.00 0.00 0.01 0.02 0.03 0.04 0.04 0.09 0.13 0.17 0.23 0.23 0.15 0.10 0.08 0.08 0.09 0.10 0.11 0.09 0.06 0.03 0.02
0.00 0.01 0.00 0.00 0.00 0.00 0.00 0.00 0.00 0.00 0.00 0.00 0.00 0.00 0.00 0.00 0.00 0.00 0.00 0.00 0.00 0.00 0.02 0.05 0.05 0.04 0.07 0.12 0.17 0.20 0.23 0.22 0.17 0.12 0.08 0.06 0.05 0.06 0.06 0.06 0.05 0.03 0.03
0.00 0.00 0.00 0.00 0.00 0.00 0.00 0.00 0.00 0.00 0.00 0.00 0.00 0.00 0.00 0.00 0.00 0.00 0.00 0.00 0.00 0.01 0.02 0.04 0.04 0.05 0.10 0.17 0.21 0.22 0.22 0.22 0.20 0.15 0.11 0.07 0.05 0.05 0.05 0.04 0.03 0.03 0.04
0.00 0.00 0.00 0.00 0.00 0.00 0.00 0.00 0.00 0.00 0.00 0.00 0.00 0.00 0.00 0.01 0.00 0.00 0.00 0.00 0.00 0.01 0.02 0.02 0.02 0.04 0.08 0.16 0.19 0.20 0.20 0.21 0.23 0.19 0.14 0.09 0.07 0.07 0.06 0.05 0.04 0.04 0.04
0.00 0.00 0.00 0.00 0.00 0.00 0.00 0.00 0.00 0.00 0.00 0.00 0.00 0.00 0.00 0.00 0.00 0.00 0.00 0.00 0.00 0.01 0.01 0.02 0.03 0.05 0.09 0.14 0.17 0.18 0.19 0.19 0.20 0.18 0.15 0.11 0.08 0.07 0.07 0.06 0.04 0.03 0.03
0.00 0.00 0.00 0.00 0.00 0.00 0.00 0.00 0.00 0.00 0.00 0.00 0.00 0.00 0.00 0.00 0.00 0.00 0.00 0.00 0.00 0.01 0.01 0.02 0.04 0.07 0.10 0.12 0.13 0.13 0.13 0.14 0.14 0.14 0.12 0.10 0.07 0.06 0.05 0.04 0.02 0.02 0.01
0.00 0.00 0.00 0.00 0.00 0.00 0.00 0.00 0.00 0.00 0.01 0.01 0.00 0.00 0.00 0.00 0.00 0.00 0.00 0.01 0.00 0.00 0.01 0.02 0.04 0.07 0.09 0.10 0.09 0.09 0.08 0.09 0.09 0.09 0.09 0.07 0.05 0.03 0.03 0.02 0.01 0.01 0.01
0.00 0.00 0.00 0.00 0.00 0.00 0.00 0.00 0.00 0.00 0.00 0.00 0.00 0.00 0.00 0.00 0.00 0.01 0.01 0.01 0.01 0.01 0.01 0.02 0.04 0.06 0.07 0.07 0.07 0.06 0.05 0.06 0.06 0.06 0.06 0.05 0.04 0.03 0.02 0.01 0.01 0.00 0.01
0.00 0.00 0.00 0.00 0.00 0.00 0.00 0.00 0.00 0.00 0.00 0.01 0.01 0.00 0.00 0.01 0.01 0.01 0.02 0.02 0.02 0.01 0.01 0.02 0.04 0.06 0.07 0.06 0.05 0.04 0.04 0.03 0.03 0.04 0.04 0.05 0.05 0.03 0.02 0.01 0.01 0.01 0.01
0.00 0.00 0.00 0.00 0.00 0.00 0.00 0.00 0.00 0.00 0.00 0.01 0.01 0.00 0.01 0.01 0.02 0.02 0.02 0.03 0.02 0.02 0.01 0.02 0.03 0.05 0.06 0.05 0.05 0.04 0.04 0.03 0.03 0.04 0.04 0.04 0.04 0.03 0.02 0.02 0.01 0.00 0.00
0.00 0.00 0.00 0.00 0.00 0.00 0.00 0.00 0.00 0.00 0.00 0.00 0.00 0.00 0.01 0.02 0.03 0.03 0.04 0.03 0.03 0.02 0.01 0.01 0.01 0.02 0.04 0.04 0.04 0.04 0.04 0.05 0.04 0.04 0.04 0.04 0.04 0.03 0.02 0.01 0.00 0.00 0.00
0.00 0.00 0.00 0.00 0.00 0.00 0.00 0.00 0.00 0.00 0.00 0.00 0.00 0.01 0.01 0.02 0.04 0.06 0.07 0.06 0.04 0.03 0.02 0.01 0.01 0.01 0.01 0.02 0.02 0.03 0.03 0.04 0.05 0.05 0.05 0.04 0.03 0.02 0.02 0.01 0.01 0.00 0.00
0.00 0.00 0.00 0.00 0.00 0.00 0.00 0.00 0.00 0.00 0.00 0.00 0.00 0.01 0.01 0.02 0.04 0.06 0.09 0.09 0.09 0.08 0.06 0.05 0.04 0.03 0.02 0.02 0.02 0.02 0.02 0.03 0.04 0.06 0.05 0.03 0.02 0.02 0.02 0.01 0.01 0.00 0.00
0.00 0.00 0.00 0.00 0.00 0.00 0.00 0.00 0.00 0.00 0.00 0.00 0.00 0.01 0.01 0.02 0.03 0.04 0.05 0.07 0.10 0.13 0.13 0.13 0.12 0.09 0.06 0.04 0.02 0.01 0.02 0.02 0.03 0.05 0.06 0.04 0.02 0.02 0.01 0.01 0.01 0.00 0.00
0.00 0.00 0.00 0.00 0.00 0.00 0.00 0.00 0.00 0.00 0.00 0.00 0.00 0.00 0.01 0.01 0.02 0.03 0.03 0.04 0.05 0.07 0.10 0.14 0.15 0.12 0.08 0.06 0.04 0.02 0.01 0.01 0.01 0.01 0.05 0.04 0.03 0.02 0.02 0.01 0.01 0.00 0.00
MSLP
1019.47 1019.57 1019.61 1019.57 1019.43 1019.20 1018.90 1018.56 1018.20 1017.85 1017.52 1017.24 1016.99 1016.77 1016.55 1016.33 1016.07 1015.78 1015.45 1015.10 1014.72 1014.35 1014.00 1013.68 1013.39 1013.13 1012.88 1012.63 1012.35 1012.01 1011.63 1011.19 1010.73 1010.26 1009.82 1009.45 1009.20 1009.07 1009.06 1009.15 1009.29 1009.41 1009.43
1019.71 1019.75 1019.72 1019.60 1019.41 1019.15 1018.84 1018.49 1018.15 1017.82 1017.53 1017.27 1017.04 1016.82 1016.60 1016.35 1016.06 1015.72 1015.33 1014.90 1014.44 1013.98 1013.55 1013.15 1012.79 1012.47 1012.18 1011.90 1011.61 1011.28 1010.92 1010.52 1010.10 1009.68 1009.32 1009.03 1008.87 1008.83 1008.90 1009.07 1009.26 1009.40 1009.40
1019.91 1019.88 1019.78 1019.60 1019.36 1019.07 1018.74 1018.40 1018.08 1017.79 1017.54 1017.32 1017.13 1016.94 1016.73 1016.48 1016.17 1015.79 1015.34 1014.83 1014.29 1013.73 1013.19 1012.69 1012.23 1011.83 1011.46 1011.12 1010.78 1010.43 1010.06 1009.67 1009.28 1008.92 1008.63 1008.43 1008.36 1008.43 1008.62 1008.88 1009.16 1009.36 1009.40
1020.07 1019.98 1019.81 1019.58 1019.28 1018.96 1018.62 1018.29 1018.00 1017.75 1017.55 1017.38 1017.23 1017.08 1016.90 1016.66 1016.34 1015.93 1015.44 1014.87 1014.25 1013.61 1012.97 1012.36 1011.79 1011.27 1010.80 1010.37 1009.95 1009.55 1009.14 1008.74 1008.37 1008.05 1007.82 1007.71 1007.75 1007.93 1008.25 1008.63 1009.03 1009.34 1009.47
1020.19 1020.04 1019.81 1019.52 1019.18 1018.83 1018.48 1018.16 1017.89 1017.67 1017.51 1017.39 1017.30 1017.19 1017.04 1016.82 1016.51 1016.09 1015.58 1014.97 1014.29 1013.57 1012.85 1012.14 1011.46 1010.83 1010.25 1009.71 1009.20 1008.72 1008.26 1007.83 1007.46 1007.17 1006.99 1006.97 1007.11 1007.41 1007.86 1008.39 1008.93 1009.39 1009.66
1020.24 1020.04 1019.76 1019.42 1019.04 1018.66 1018.30 1017.98 1017.72 1017.54 1017.41 1017.33 1017.28 1017.21 1017.09 1016.90 1016.61 1016.20 1015.68 1015.06 1014.35 1013.58 1012.79 1012.00 1011.23 1010.50 1009.81 1009.16 1008.56 1008.00 1007.48 1007.02 1006.64 1006.37 1006.25 1006.30 1006.53 1006.95 1007.53 1008.20 1008.89 1009.51 1009.96
1020.22 1019.97 1019.65 1019.26 1018.85 1018.45 1018.07 1017.75 1017.51 1017.34 1017.24 1017.19 1017.16 1017.12 1017.04 1016.87 1016.61 1016.22 1015.72 1015.10 1014.38 1013.59 1012.76 1011.91 1011.07 1010.25 1009.47 1008.74 1008.05 1007.42 1006.85 1006.37 1005.99 1005.75 1005.67 1005.80 1006.12 1006.64 1007.33 1008.13 1008.96 1009.74 1010.36
1020.11 1019.82 1019.46 1019.04 1018.60 1018.18 1017.80 1017.49 1017.25 1017.09 1017.01 1016.98 1016.98 1016.96 1016.90 1016.76 1016.52 1016.16 1015.68 1015.07 1014.36 1013.57 1012.71 1011.83 1010.94 1010.07 1009.22 1008.43 1007.68 1007.01 1006.42 1005.93 1005.57 1005.37 1005.36 1005.55 1005.95 1006.56 1007.33 1008.22 1009.16 1010.05 1010.82
1019.91 1019.58 1019.19 1018.75 1018.31 1017.89 1017.51 1017.21 1016.99 1016.85 1016.79 1016.77 1016.79 1016.79 1016.75 1016.63 1016.41 1016.07 1015.61 1015.02 1014.32 1013.53 1012.67 1011.76 1010.84 1009.93 1009.05 1008.22 1007.46 1006.77 1006.19 1005.74 1005.43 1005.29 1005.35 1005.61 1006.08 1006.75 1007.57 1008.51 1009.50 1010.46 1011.31
1019.63 1019.27 1018.86 1018.42 1017.99 1017.58 1017.23 1016.96 1016.77 1016.67 1016.63 1016.65 1016.68 1016.70 1016.67 1016.56 1016.35 1016.03 1015.57 1014.99 1014.30 1013.50 1012.64 1011.72 1010.79 1009.86 1008.97 1008.13 1007.38 1006.72 1006.19 1005.80 1005.57 1005.51 1005.65 1005.99 1006.52 1007.22 1008.06 1009.00 1009.98 1010.93 1011.80
1019.28 1018.91 1018.50 1018.07 1017.67 1017.31 1017.01 1016.79 1016.66 1016.60 1016.61 1016.66 1016.72 1016.75 1016.73 1016.63 1016.42 1016.09 1015.64 1015.05 1014.35 1013.55 1012.67 1011.74 1010.80 1009.87 1008.98 1008.17 1007.46 1006.86 1006.41 1006.11 1005.98 1006.03 1006.26 1006.66 1007.23 1007.95 1008.77 1009.66 1010.58 1011.47 1012.28
1018.91 1018.53 1018.14 1017.75 1017.40 1017.10 1016.88 1016.74 1016.68 1016.69 1016.75 1016.85 1016.93 1016.99 1016.97 1016.87 1016.65 1016.31 1015.83 1015.23 1014.50 1013.68 1012.79 1011.85 1010.91 1009.99 1009.13 1008.36 1007.70 1007.19 1006.83 1006.64 1006.63 1006.78 1007.10 1007.57 1008.17 1008.87 1009.64 1010.45 1011.26 1012.04 1012.74
1018.56 1018.18 1017.82 1017.48 1017.20 1016.98 1016.86 1016.81 1016.84 1016.93 1017.06 1017.20 1017.33 1017.39 1017.38 1017.26 1017.02 1016.65 1016.15 1015.51 1014.76 1013.92 1013.01 1012.07 1011.13 1010.23 1009.41 1008.70 1008.12 1007.70 1007.45 1007.37 1007.46 1007.71 1008.11 1008.63 1009.23 1009.90 1010.60 1011.31 1011.99 1012.62 1013.19
1018.26 1017.90 1017.57 1017.30 1017.10 1016.98 1016.95 1017.01 1017.13 1017.31 1017.50 1017.69 1017.84 1017.91 1017.89 1017.75 1017.48 1017.07 1016.53 1015.86 1015.09 1014.23 1013.31 1012.38 1011.47 1010.61 1009.84 1009.20 1008.70 1008.37 1008.22 1008.24 1008.42 1008.75 1009.19 1009.72 1010.32 1010.94 1011.55 1012.15 1012.69 1013.19 1013.62
1018.05 1017.73 1017.45 1017.24 1017.12 1017.10 1017.17 1017.32 1017.54 1017.78 1018.03 1018.25 1018.41 1018.48 1018.43 1018.26 1017.95 1017.50 1016.92 1016.23 1015.43 1014.57 1013.67 1012.77 1011.90 1011.10 1010.40 1009.83 1009.42 1009.18 1009.11 1009.20 1009.43 1009.80 1010.26 1010.78 1011.33 1011.89 1012.41 1012.90 1013.32 1013.70 1014.02
1017.98 1017.69 1017.47 1017.33 1017.30 1017.36 1017.52 1017.75 1018.03 1018.32 1018.61 1018.84 1018.99 1019.03 1018.94 1018.72 1018.36 1017.87 1017.26 1016.54 1015.75 1014.90 1014.04 1013.19 1012.39 1011.67 1011.06 1010.58 1010.25 1010.08 1010.07 1010.19 1010.45 1010.81 1011.25 1011.72 1012.21 1012.68 1013.11 1013.50 1013.84 1014.12 1014.37
1018.05 1017.81 1017.65 1017.58 1017.62 1017.76 1017.99 1018.28 1018.60 1018.92 1019.20 1019.42 1019.53 1019.52 1019.38 1019.10 1018.68 1018.15 1017.51 1016.79 1016.01 1015.21 1014.41 1013.64 1012.93 1012.31 1011.80 1011.41 1011.16 1011.04 1011.05 1011.19 1011.43 1011.74 1012.11 1012.51 1012.91 1013.29 1013.64 1013.95 1014.22 1014.46 1014.68
1018.27 1018.09 1017.99 1018.00 1018.11 1018.31 1018.58 1018.91 1019.25 1019.56 1019.83 1020.00 1020.05 1019.97 1019.76 1019.41 1018.94 1018.36 1017.70 1016.98 1016.24 1015.49 1014.77 1014.11 1013.51 1012.99 1012.58 1012.28 1012.09 1012.01 1012.03 1012.14 1012.33 1012.57 1012.85 1013.15 1013.45 1013.74 1014.00 1014.25 1014.49 1014.71 1014.93
1018.63 1018.52 1018.49 1018.57 1018.73 1018.99 1019.30 1019.64 1019.97 1020.26 1020.48 1020.59 1020.58 1020.42 1020.13 1019.71 1019.18 1018.56 1017.89 1017.18 1016.47 1015.79 1015.16 1014.60 1014.11 1013.70 1013.39 1013.16 1013.02 1012.96 1012.97 1013.04 1013.15 1013.30 1013.47 1013.66 1013.85 1014.05 1014.25 1014.46 1014.67 1014.90 1015.15
1019.11 1019.07 1019.12 1019.26 1019.48 1019.77 1020.10 1020.44 1020.76 1021.01 1021.18 1021.23 1021.13 1020.90 1020.54 1020.05 1019.47 1018.82 1018.14 1017.44 1016.78 1016.16 1015.61 1015.13 1014.74 1014.43 1014.19 1014.03 1013.92 1013.86 1013.84 1013.85 1013.88 1013.93 1014.00 1014.08 1014.18 1014.30 1014.44 1014.62 1014.83 1015.08 1015.38
1019.69 1019.72 1019.84 1020.03 1020.29 1020.61 1020.94 1021.28 1021.57 1021.79 1021.90 1021.89 1021.74 1021.44 1021.02 1020.49 1019.87 1019.19 1018.51 1017.83 1017.19 1016.63 1016.14 1015.73 1015.40 1015.16 1014.97 1014.84 1014.75 1014.67 1014.61 1014.56 1014.51 1014.47 1014.45 1014.44 1014.46 1014.52 1014.63 1014.80 1015.02 1015.30 1015.64
1020.32 1020.42 1020.59 1020.82 1021.11 1021.43 1021.76 1022.08 1022.35 1022.53 1022.61 1022.55 1022.36 1022.03 1021.58 1021.02 1020.38 1019.71 1019.02 1018.36 1017.75 1017.21 1016.76 1016.39 1016.10 1015.88 1015.72 1015.59 1015.48 1015.38 1015.28 1015.17 1015.05 1014.94 1014.84 1014.77 1014.75 1014.77 1014.87 1015.03 1015.27 1015.58 1015.95
1020.98 1021.12 1021.31 1021.56 1021.85 1022.17 1022.49 1022.79 1023.03 1023.19 1023.24 1023.17 1022.97 1022.63 1022.18 1021.63 1021.00 1020.34 1019.67 1019.03 1018.44 1017.91 1017.47 1017.11 1016.82 1016.59 1016.41 1016.26 1016.12 1015.98 1015.82 1015.66 1015.50 1015.33 1015.19 1015.09 1015.04 1015.07 1015.16 1015.34 1015.61 1015.94 1016.34
1021.63 1021.78 1021.98 1022.21 1022.48 1022.78 1023.07 1023.34 1023.55 1023.70 1023.75 1023.69 1023.50 1023.19 1022.77 1022.26 1021.68 1021.05 1020.42 1019.80 1019.22 1018.71 1018.26 1017.87 1017.56 1017.30 1017.07 1016.87 1016.68 1016.48 1016.28 1016.07 1015.87 1015.68 1015.52 1015.41 1015.36 1015.39 1015.51 1015.71 1016.00 1016.35 1016.76
1022.25 1022.39 1022.55 1022.76 1022.99 1023.23 1023.48 1023.71 1023.91 1024.05 1024.11 1024.07 1023.93 1023.67 1023.32 1022.87 1022.36 1021.80 1021.21 1020.63 1020.07 1019.56 1019.10 1018.68 1018.32 1018.00 1017.72 1017.45 1017.19 1016.94 1016.69 1016.44 1016.21 1016.00 1015.83 1015.73 1015.70 1015.75 1015.89 1016.11 1016.41 1016.77 1017.18
1022.83 1022.93 1023.05 1023.20 1023.37 1023.56 1023.76 1023.96 1024.14 1024.27 1024.35 1024.35 1024.26 1024.08 1023.81 1023.45 1023.02 1022.54 1022.02 1021.49 1020.97 1020.46 1019.98 1019.54 1019.13 1018.75 1018.40 1018.06 1017.74 1017.42 1017.11 1016.83 1016.56 1016.34 1016.17 1016.07 1016.06 1016.12 1016.27 1016.50 1016.80 1017.16 1017.54
Thickness
5570 5561 5553 5545 5537 5529 5521 5513 5506 5499 5493 5489 5485 5482 5479 5477 5475 5473 5471 5469 5469 5468 5467 5467 5467 5466 5465 5465 5465 5465 5466 5466 5470 5476 5475 5476 5475 5475 5474 5472 5471 5471 5472
5555 5547 5539 5531 5523 5517 5511 5505 5499 5494 5489 5485 5481 5478 5475 5472 5468 5464 5462 5460 5460 5462 5463 5463 5464 5464 5463 5462 5462 5463 5465 5465 5466 5471 5473 5473 5473 5473 5473 5471 5469 5468 5468
5542 5535 5527 5520 5514 5509 5504 5499 5494 5489 5485 5480 5476 5472 5468 5464 5458 5453 5451 5451 5453 5456 5458 5460 5461 5461 5461 5461 5462 5463 5465 5467 5467 5469 5471 5472 5472 5472 5471 5469 5466 5465 5466
5531 5524 5517 5512 5508 5503 5499 5494 5490 5485 5480 5475 5469 5464 5459 5453 5447 5443 5442 5443 5447 5451 5454 5457 5459 5459 5459 5460 5461 5463 5465 5466 5468 5469 5470 5471 5472 5471 5469 5467 5463 5461 5462
5520 5515 5510 5507 5503 5499 5495 5491 5485 5479 5474 5467 5461 5455 5448 5443 5435 5432 5432 5436 5440 5447 5451 5454 5456 5457 5458 5458 5459 5462 5464 5467 5469 5470 5471 5472 5472 5470 5468 5464 5462 5458 5458
5512 5509 5506 5503 5500 5496 5491 5486 5480 5474 5467 5460 5453 5445 5438 5431 5423 5421 5422 5427 5434 5441 5445 5448 5450 5453 5454 5456 5459 5463 5466 5470 5473 5472 5473 5473 5473 5470 5466 5463 5461 5460 5458
5509 5506 5503 5499 5496 5491 5487 5481 5474 5468 5460 5452 5445 5438 5430 5423 5416 5413 5413 5419 5427 5432 5436 5441 5445 5448 5449 5454 5459 5466 5473 5478 5478 5476 5475 5475 5473 5469 5465 5462 5460 5458 5454
5506 5502 5500 5496 5491 5487 5482 5476 5469 5461 5454 5446 5440 5432 5425 5418 5410 5407 5406 5412 5419 5423 5428 5434 5438 5441 5446 5449 5458 5468 5477 5483 5484 5480 5478 5477 5473 5469 5466 5462 5457 5453 5450
5503 5499 5496 5491 5487 5482 5478 5470 5463 5456 5449 5442 5435 5428 5421 5414 5406 5402 5400 5406 5410 5414 5421 5427 5431 5435 5441 5447 5457 5468 5478 5483 5483 5481 5479 5476 5471 5467 5464 5460 5456 5454 5448
5500 5497 5493 5488 5484 5479 5473 5466 5459 5452 5444 5437 5430 5424 5416 5408 5401 5397 5394 5399 5402 5407 5414 5420 5425 5430 5437 5444 5455 5465 5475 5479 5479 5477 5474 5470 5465 5461 5459 5459 5458 5456 5452
5499 5495 5492 5488 5483 5478 5470 5463 5455 5448 5439 5432 5424 5418 5410 5402 5396 5391 5389 5391 5393 5399 5407 5412 5419 5426 5434 5442 5451 5461 5468 5473 5473 5472 5468 5464 5460 5457 5455 5453 5453 5454 5453
5498 5495 5491 5487 5481 5476 5468 5460 5453 5444 5435 5426 5418 5410 5403 5395 5389 5385 5384 5384 5386 5393 5399 5405 5413 5422 5430 5438 5448 5455 5462 5466 5467 5465 5463 5460 5456 5453 5451 5450 5449 5448 5446
5497 5495 5491 5487 5481 5474 5466 5458 5449 5439 5428 5419 5409 5401 5394 5388 5382 5379 5379 5381 5383 5388 5393 5400 5409 5418 5427 5435 5442 5450 5456 5459 5461 5461 5459 5455 5452 5449 5447 5446 5444 5442 5440
5496 5493 5490 5485 5478 5470 5464 5455 5443 5430 5416 5405 5395 5389 5383 5378 5374 5372 5373 5376 5379 5384 5390 5398 5407 5415 5423 5429 5437 5444 5448 5452 5455 5455 5453 5450 5447 5445 5444 5443 5441 5440 5438
5494 5489 5485 5481 5472 5465 5456 5441 5428 5410 5398 5388 5380 5377 5373 5369 5364 5363 5364 5368 5371 5378 5385 5395 5403 5411 5418 5425 5431 5437 5441 5445 5447 5448 5448 5447 5445 5443 5441 5440 5441 5439 5438
5490 5483 5479 5474 5466 5459 5449 5431 5414 5401 5390 5379 5371 5366 5365 5360 5359 5360 5363 5366 5371 5377 5385 5391 5397 5405 5412 5419 5425 5430 5434 5437 5440 5442 5443 5443 5442 5441 5440 5440 5439 5439 5439
5483 5476 5473 5467 5460 5453 5444 5432 5412 5396 5385 5376 5369 5363 5360 5357 5357 5358 5361 5365 5370 5376 5383 5387 5392 5399 5406 5413 5419 5424 5427 5430 5433 5435 5437 5437 5438 5438 5438 5438 5438 5439 5440
5477 5471 5466 5461 5454 5446 5436 5424 5411 5398 5386 5376 5367 5361 5358 5357 5356 5356 5359 5364 5368 5374 5378 5382 5388 5394 5401 5408 5413 5417 5421 5424 5427 5429 5431 5432 5433 5434 5435 5437 5438 5440 5441
5472 5466 5460 5454 5447 5438 5427 5415 5403 5392 5382 5372 5365 5359 5356 5357 5356 5356 5358 5362 5365 5369 5374 5379 5384 5390 5396 5402 5407 5411 5416 5419 5422 5424 5426 5428 5430 5431 5433 5436 5438 5438 5441
5469 5459 5455 5448 5440 5430 5418 5407 5397 5386 5377 5369 5362 5356 5355 5356 5356 5357 5358 5361 5364 5368 5371 5376 5381 5386 5392 5397 5402 5406 5410 5413 5416 5419 5422 5424 5427 5430 5433 5435 5437 5439 5440
5469 5460 5452 5445 5433 5422 5411 5401 5391 5382 5374 5366 5360 5355 5353 5354 5355 5355 5357 5360 5363 5366 5370 5374 5379 5384 5389 5394 5399 5402 5405 5408 5411 5414 5418 5422 5425 5428 5431 5433 5435 5437 5439
5466 5457 5449 5441 5427 5416 5407 5397 5388 5379 5372 5365 5360 5357 5355 5355 5355 5356 5357 5359 5363 5366 5370 5373 5378 5382 5387 5392 5396 5400 5402 5404 5407 5410 5414 5418 5422 5426 5428 5431 5433 5435 5436
5462 5454 5446 5436 5425 5412 5405 5396 5388 5380 5372 5365 5361 5358 5357 5356 5356 5357 5358 5360 5362 5366 5370 5374 5377 5381 5386 5391 5395 5398 5401 5403 5405 5407 5410 5414 5418 5422 5426 5428 5431 5433 5434
5459 5451 5443 5435 5424 5413 5404 5396 5388 5381 5373 5366 5361 5358 5356 5356 5356 5356 5357 5359 5362 5365 5369 5372 5376 5379 5384 5389 5393 5396 5399 5402 5405 5407 5409 5411 5414 5418 5423 5426 5429 5431 5432
5456 5449 5441 5433 5424 5414 5405 5396 5389 5381 5374 5367 5362 5359 5356 5355 5355 5356 5357 5359 5361 5363 5366 5370 5373 5376 5380 5384 5389 5393 5397 5402 5405 5408 5409 5411 5413 5416 5420 5424 5427 5429 5430
5454 5447 5439 5432 5424 5416 5408 5399 5391 5383 5376 5370 5365 5361 5358 5356 5355 5355 5356 5357 5359 5361 5364 5367 5370 5373 5376 5381 5385 5390 5396 5401 5405 5408 5410 5412 5413 5415 5418 5422 5425 5427 5428